DW0218 Weather Reports


Display with metric or nautical units.
time (UTC)temp
F
wind
direction
speed
MPH
gust
MPH
rain 1hr
in
rain 24hr
in
rain mn
in
humidity
%
barometer
mb
20260507085805 61 235 4.0 8.0 0.00 0.00 0.00 64 1016.0
20260507083805 60 198 3.0 6.0 0.00 0.00 0.00 63 1016.0
20260507082805 60 224 0.0 3.0 0.00 0.00 0.00 58 1016.0
20260507080805 60 315 2.0 5.0 0.00 0.00 0.00 60 1016.0
20260507075805 60 226 2.0 5.0 0.00 0.00 0.00 71 1016.0
20260507073805 54 338 1.0 5.0 0.00 0.00 0.00 74 1016.0
20260507072806 53 41 2.0 5.0 0.00 0.00 0.00 79 1016.0
20260507071805 51 262 2.0 5.0 0.00 0.00 0.00 83 1016.0
20260507070805 49 229 2.0 3.0 0.00 0.00 0.00 88 1016.0
20260507065806 48 0 0.0 3.0 0.00 0.00 0.00 91 1016.0
20260507064805 47 0 0.0 0.0 0.00 0.00 0.00 92 1016.0
20260507062805 45 0 0.0 0.0 0.00 0.00 0.00 94 1016.0
20260507060805 44 0 0.0 0.0 0.00 0.00 0.00 96 1015.0
20260507055804 44 0 0.0 0.0 0.00 0.00 0.00 95 1015.0
20260507053805 43 0 0.0 0.0 0.00 0.00 0.00 95 1015.0
20260507051804 42 0 0.0 0.0 0.00 0.00 0.00 95 1015.0
20260507050805 42 0 0.0 0.0 0.00 0.00 0.00 95 1015.0
20260507043805 41 0 0.0 0.0 0.00 0.00 0.00 95 1015.0
20260507041805 41 0 0.0 0.0 0.00 0.00 0.00 94 1015.0
20260507040805 41 0 0.0 1.0 0.00 0.00 0.00 94 1015.0
20260507034805 41 0 0.0 0.0 0.00 0.00 0.00 94 1015.0
20260507033805 41 0 0.0 0.0 0.00 0.00 0.00 94 1015.0
20260507032805 41 0 0.0 1.0 0.00 0.00 0.00 93 1015.0
20260507030805 41 0 0.0 0.0 0.00 0.00 0.00 91 1015.0
20260507025805 42 0 0.0 0.0 0.00 0.00 0.00 90 1015.0
20260507024805 42 0 0.0 0.0 0.00 0.00 0.00 89 1015.0
20260507022805 42 0 0.0 0.0 0.00 0.00 0.00 87 1015.0
20260507020805 42 0 0.0 0.0 0.00 0.00 0.00 86 1015.0
20260507011805 44 0 0.0 0.0 0.00 0.00 0.00 84 1015.0
20260507005806 44 0 0.0 0.0 0.00 0.00 0.00 82 1015.0
20260507004805 44 0 0.0 1.0 0.00 0.00 0.00 82 1015.0
20260507002806 45 0 0.0 1.0 0.00 0.00 0.00 80 1015.0
20260507001805 46 0 0.0 0.0 0.00 0.00 0.00 78 1015.0
20260507000805 46 0 0.0 0.0 0.00 0.00 0.00 77 1015.0
20260506234805 46 0 0.0 0.0 0.00 0.00 0.00 75 1015.0
20260506232805 47 0 0.0 0.0 0.00 0.00 0.00 73 1015.0
20260506230820 48 0 0.0 0.0 0.00 0.00 0.00 71 1015.0
20260506222805 49 0 0.0 0.0 0.00 0.00 0.00 69 1014.0
20260506221804 49 0 0.0 0.0 0.00 0.00 0.00 68 1014.0
20260506220805 49 0 0.0 0.0 0.00 0.00 0.00 67 1014.0
20260506215805 50 0 0.0 0.0 0.00 0.00 0.00 67 1014.0
20260506214805 50 0 0.0 0.0 0.00 0.00 0.00 66 1014.0
20260506203806 53 0 0.0 0.0 0.00 0.00 0.00 62 1014.0
20260506194804 54 0 0.0 2.0 0.00 0.00 0.00 56 1014.0
20260506192806 54 338 0.0 2.0 0.00 0.00 0.00 55 1014.0
20260506190806 55 0 0.0 1.0 0.00 0.00 0.00 53 1013.0
20260506185806 55 0 0.0 1.0 0.00 0.00 0.00 53 1013.0
20260506184805 55 0 0.0 0.0 0.00 0.00 0.00 52 1013.0
20260506182805 55 0 1.0 3.0 0.00 0.00 0.00 51 1013.0
20260506181805 56 0 0.0 2.0 0.00 0.00 0.00 50 1012.9
20260506180806 56 338 1.0 2.0 0.00 0.00 0.00 49 1012.0
20260506165805 58 338 0.0 2.0 0.00 0.00 0.00 45 1012.0
20260506163805 58 0 0.0 3.0 0.00 0.00 0.00 45 1012.0
20260506161806 58 0 0.0 3.0 0.00 0.00 0.00 44 1012.0
20260506160805 59 45 0.0 5.0 0.00 0.00 0.00 44 1012.0
20260506155806 59 41 2.0 2.0 0.00 0.00 0.00 45 1012.0
20260506153806 59 22 1.0 3.0 0.00 0.00 0.00 44 1012.0
20260506144805 59 9 2.0 5.0 0.00 0.00 0.00 44 1012.0
20260506143805 60 26 0.0 3.0 0.00 0.00 0.00 44 1012.0
20260506140805 59 0 1.0 3.0 0.00 0.00 0.00 44 1012.0
20260506134805 60 99 0.0 3.0 0.00 0.00 0.00 44 1012.0
20260506131805 61 32 1.0 3.0 0.00 0.00 0.00 44 1012.0
20260506130806 60 1 1.0 3.0 0.00 0.00 0.00 44 1012.0
20260506125805 60 355 1.0 3.0 0.00 0.00 0.00 44 1013.0
20260506124805 60 357 1.0 6.0 0.00 0.00 0.00 43 1013.0
20260506122805 60 1 1.0 5.0 0.00 0.00 0.00 44 1012.0
20260506121805 60 342 2.0 6.0 0.00 0.00 0.00 44 1012.0
20260506115806 60 0 1.0 5.0 0.00 0.00 0.00 44 1013.0
20260506114805 60 14 1.0 5.0 0.00 0.00 0.00 44 1013.0
20260506105805 59 338 1.0 3.0 0.00 0.00 0.00 46 1013.0
20260506104805 59 0 1.0 3.0 0.00 0.00 0.00 47 1013.0
20260506101805 58 0 1.0 3.0 0.00 0.00 0.00 49 1013.0
20260506095805 57 352 1.0 5.0 0.00 0.00 0.00 50 1013.0
20260506094805 58 8 0.0 5.0 0.00 0.00 0.00 50 1013.0